Weather History for Clayton Lake, ME

Change the Weather History Date:

Wednesday, January 2, 2013

  Actual Average Record
Temperature  
Mean Temperature -6 °F -  
Max Temperature 2 °F 21 °F 41 °F (2011)
Min Temperature -14 °F 0 °F -22 °F (1999)
Degree Days  
Heating Degree Days 71    
Moisture  
Dew Point -11 °F    
Average Humidity 72    
Maximum Humidity 82    
Minimum Humidity 59    
Precipitation  
Precipitation 0.40 in - - ()
Sea Level Pressure  
Sea Level Pressure 29.90 in    
Wind  
Wind Speed 6 mph (WSW)    
Max Wind Speed 9 mph    
Max Gust Speed 24 mph    
Averages and records for this station are not official NWS values.
T = Trace of Precipitation, MM = Missing Value Source: NWS Daily Summary

Daily Weather History Graph

Daily Weather History Graph

Search for Another Location

Airport:

Trip Planner

Search our weather history database for the weather conditions in past years. The results will help you decide how hot, cold, wet, or windy it might be!

Date:

Astronomy

Jan. 02, 2013 Rise Set
Actual Time 7:22 AM EST 4:02 PM EST
Civil Twilight 6:47 AM EST 4:37 PM EST
Nautical Twilight 6:09 AM EST 5:15 PM EST
Astronomical Twilight 5:32 AM EST 5:52 PM EST
Moon 9:53 PM EST (1/2) 9:42 AM EST (1/2)
Length of Visible Light 9h 49m
Length of Day
8h 40m
Waning Gibbous, 75% of the Moon is Illuminated
Jan 2
Waning Gibbous
Jan 4
Last Quarter
Jan 11
New
Jan 18
First Quarter
Jan 26
Full

Hourly Weather History & Observations

Time (EST) Temp. Windchill Dew Point Humidity Pressure Visibility Wind Dir Wind Speed Gust Speed Precip Events Conditions
12:25 AM -4.7 °F -15.4 °F -9.9 °F 78% 29.79 in - Variable 4.6 mph 13.8 mph N/A   Unknown
1:25 AM -5.3 °F -17.8 °F -10.5 °F 78% 29.79 in - Variable 5.8 mph 13.8 mph 0.03 in   Unknown
2:25 AM -5.4 °F -19.5 °F -10.8 °F 77% 29.81 in - Variable 6.9 mph 16.1 mph 0.04 in   Unknown
3:25 AM -6.0 °F -20.1 °F -11.4 °F 77% 29.81 in - WSW 6.9 mph 20.7 mph N/A   Unknown
4:25 AM -6.3 °F -20.6 °F -11.7 °F 77% 29.80 in - Variable 6.9 mph 13.8 mph 0.03 in   Unknown
5:25 AM -7.4 °F -16.3 °F -12.6 °F 78% 29.81 in - Variable 3.5 mph - N/A   Unknown
6:25 AM -8.3 °F -19.6 °F -13.5 °F 78% 29.82 in - Variable 4.6 mph - 0.06 in   Unknown
7:25 AM -14.1 °F - -18.2 °F 82% 29.84 in - Variable 2.3 mph - N/A   Unknown
8:25 AM -8.5 °F -21.6 °F -14.1 °F 77% 29.84 in - Variable 5.8 mph - 0.03 in   Unknown
9:25 AM -4.2 °F -18.0 °F -12.3 °F 68% 29.86 in - Variable 6.9 mph 16.1 mph 0.10 in   Unknown
10:25 AM -1.7 °F -14.9 °F -11.0 °F 64% 29.86 in - WSW 6.9 mph 24.2 mph 0.02 in   Unknown
11:25 AM 0.3 °F -14.8 °F -9.9 °F 62% 29.86 in - WSW 9.2 mph 16.1 mph 0.01 in   Unknown
12:28 PM 1.9 °F -9.2 °F -8.7 °F 61% 29.86 in - Variable 5.8 mph 20.7 mph 0.01 in   Unknown
1:25 PM 1.9 °F -9.2 °F -9.4 °F 59% 29.86 in - Variable 5.8 mph 18.4 mph N/A   Unknown
2:26 PM 2.3 °F -8.8 °F -8.7 °F 60% 29.89 in - Variable 5.8 mph 19.6 mph N/A   Unknown
3:25 PM 0.7 °F -7.1 °F -8.7 °F 65% 29.92 in - Variable 3.5 mph 13.8 mph 0.02 in   Unknown
4:25 PM -1.5 °F -14.7 °F -9.8 °F 68% 29.95 in - WSW 6.9 mph 13.8 mph N/A   Unknown
5:25 PM -3.3 °F -16.9 °F -10.3 °F 72% 29.98 in - WSW 6.9 mph 19.6 mph 0.01 in   Unknown
6:25 PM -4.4 °F -19.5 °F -10.8 °F 74% 29.99 in - WSW 8.1 mph 20.7 mph 0.00 in   Unknown
7:25 PM -5.3 °F -19.3 °F -11.6 °F 74% 30.01 in - WSW 6.9 mph 19.6 mph 0.01 in   Unknown
8:25 PM -6.3 °F -19.1 °F -11.9 °F 77% 30.03 in - Variable 5.8 mph 16.1 mph N/A   Unknown
9:28 PM -6.9 °F -17.9 °F -12.3 °F 77% 30.05 in - Variable 4.6 mph - 0.00 in   Unknown
10:25 PM -7.4 °F -20.4 °F -12.6 °F 78% 30.06 in - Variable 5.8 mph 16.1 mph 0.01 in   Unknown
11:25 PM -7.2 °F -20.1 °F -12.5 °F 78% 30.07 in - Variable 5.8 mph - 0.02 in   Unknown